Location: Gajan
(43.0218°N, 1.1244°E)
Time: 03:47:45
(UTC+00:00)

USA 281 - Pass Details

Date: 22 April 2021
Orbit: 1078 x 1081 km, 106.0° (Epoch: 14 May)

Event Time Altitude Azimuth Distance (km) Brightness Sun altitude
Exits shadow 23:43:17 43° 65° (ENE) 1,482 3.9 -34.4°
Maximum altitude 23:43:40 43° 56° (ENE) 1,474 4.0 -34.4°
Drops below altitude 10° 23:49:47 10° 348° (NNW) 2,928 6.3 -34.4°
Sets 23:52:25 0° 342° (NNW) 3,888 7.1 -34.4°
